Theta_e
325 324 324 324 324 324 324 324 324 324 324 324 323 323 323 324 323 323 322 318 317 318 319 318 318 319 319 317 316 316 315 314 314 312 311 311 310 310 310 310 310 310 310
326 325 326 326 326 325 325 325 325 325 325 324 323 323 324 325 323 322 321 319 316 313 311 311 312 313 313 314 314 313 312 310 308 307 307 307 307 307 307 306 307 307 307
326 326 327 327 326 325 325 324 325 325 324 323 324 325 325 324 322 320 320 319 317 314 304 299 308 310 312 311 310 308 307 306 305 305 305 304 304 305 304 304 305 305 305
326 326 327 327 326 325 325 325 325 325 324 324 325 325 325 324 321 319 318 316 311 307 307 301 303 309 308 306 304 304 304 304 304 303 303 302 302 302 303 303 303 303 303
327 327 327 327 326 326 325 324 324 322 323 325 324 323 325 322 319 318 315 313 305 304 304 304 303 302 302 301 301 302 302 302 302 301 301 301 301 301 301 301 301 302 302
327 326 326 328 327 326 324 323 322 323 324 322 324 324 322 320 318 317 314 310 300 302 303 303 304 303 298 297 298 299 300 300 300 299 299 299 300 299 300 300 300 300 300
327 325 324 326 327 325 325 325 324 324 324 323 324 324 321 320 318 315 311 305 300 301 301 302 301 300 297 294 294 296 297 298 298 298 298 298 298 298 298 298 298 298 298
327 325 325 324 325 326 326 325 324 325 325 323 323 322 323 319 317 314 309 302 299 300 301 300 297 295 294 292 293 292 294 296 296 296 296 296 297 297 297 297 297 297 297
328 327 326 325 324 324 324 324 325 326 325 322 321 322 322 322 317 314 310 301 298 300 300 299 296 294 292 292 290 289 292 293 294 294 294 295 295 295 296 296 297 298 298
328 327 326 326 326 326 326 327 326 327 325 322 320 318 318 318 318 313 308 302 297 299 299 299 296 293 291 291 290 288 290 291 292 292 292 293 294 294 294 295 297 296 296
327 326 326 327 327 327 326 325 327 326 325 323 320 317 316 314 314 310 307 302 297 298 298 297 294 292 290 290 289 288 289 289 291 291 291 292 292 293 293 295 295 295 294
328 326 326 325 326 326 325 325 327 324 323 322 320 318 314 311 308 304 303 301 298 297 298 297 294 292 290 290 289 288 288 287 289 290 290 290 291 291 292 294 293 293 294
328 327 326 325 326 325 325 327 325 323 321 319 317 315 311 306 305 300 299 299 298 296 297 297 294 291 289 289 289 288 288 287 288 288 289 290 290 290 291 292 292 292 292
328 328 326 325 326 326 327 326 323 320 316 315 313 308 301 296 296 296 297 298 298 296 296 296 294 291 289 288 288 288 288 287 287 287 288 289 289 290 291 291 291 291 291
328 326 327 326 326 326 326 323 320 315 313 311 305 297 294 293 293 293 294 295 296 299 297 295 293 290 289 288 288 287 287 286 286 285 287 288 288 289 289 290 290 290 290
327 326 326 325 325 325 323 320 315 312 309 303 296 294 293 292 292 291 291 291 292 294 296 293 291 289 288 288 288 287 287 286 286 285 286 286 287 287 288 289 288 288 288
326 325 323 324 324 323 319 313 311 308 303 296 293 293 292 291 291 290 290 290 290 291 293 291 289 289 288 288 287 287 287 286 286 285 285 285 285 286 286 287 287 286 287
326 326 322 321 321 319 313 310 308 304 297 293 293 292 291 291 290 290 290 290 290 289 291 291 289 288 288 287 287 287 286 286 286 285 285 285 284 285 285 285 286 285 285
323 320 319 319 317 314 310 307 304 300 294 293 292 291 290 290 289 289 289 289 289 288 289 289 289 288 288 287 286 287 286 286 286 285 285 285 284 284 284 284 284 284 284
319 317 316 315 314 310 306 302 300 295 293 292 291 290 290 289 289 288 288 289 289 288 288 288 288 288 288 287 287 286 285 285 285 285 285 285 285 284 284 283 282 283 283
315 314 312 308 309 304 306 298 296 293 292 291 290 290 289 288 288 288 288 288 287 288 287 288 288 288 288 286 286 285 285 284 285 285 285 284 284 284 284 282 281 282 282
309 309 306 306 303 305 302 295 295 292 291 290 289 289 288 288 288 287 287 287 287 287 287 287 288 287 286 285 286 285 284 283 283 285 284 284 284 284 283 283 281 281 281
305 303 302 303 301 304 296 293 293 292 291 290 289 288 287 287 287 286 286 285 285 285 285 286 287 286 286 285 284 284 284 283 282 283 282 282 283 283 283 282 280 280 280
302 301 300 300 301 297 293 291 291 291 290 289 288 288 287 287 286 286 285 285 285 284 284 285 285 285 284 284 283 283 282 281 281 283 282 281 283 282 282 281 281 279 279
296 296 296 295 293 293 291 291 290 289 289 288 287 287 287 287 286 286 285 285 285 285 284 284 284 284 284 283 283 282 282 282 282 283 282 280 281 281 281 281 281 279 278
294 293 292 292 291 291 290 290 290 289 288 287 286 286 286 286 286 285 285 285 285 285 285 284 284 284 284 283 282 282 281 282 281 282 282 280 281 280 279 281 280 279 279
Wind_Speed
7 6 5 5 4 3 3 2 2 2 3 3 4 5 6 7 7 6 6 10 11 14 16 16 17 17 17 18 19 19 19 20 22 23 23 24 24 24 25 25 26 27 27
6 6 5 4 4 3 3 2 1 1 1 2 3 4 5 5 5 6 5 7 11 14 15 17 18 18 19 19 20 21 21 22 23 23 24 24 25 26 26 27 27 28 29
8 7 6 5 4 4 3 1 0 0 1 3 3 3 4 3 4 6 6 6 9 12 13 15 18 19 20 20 21 22 23 23 24 24 25 26 26 27 28 28 29 29 30
9 8 7 6 6 5 4 3 2 2 2 2 3 4 4 3 5 6 7 7 7 8 11 15 19 19 20 21 22 23 23 23 24 25 25 26 27 28 28 30 31 32 32
11 8 7 7 8 7 7 6 4 3 4 3 4 5 3 2 5 6 7 8 10 10 10 12 14 15 20 23 25 25 24 24 24 25 26 26 27 28 29 30 32 32 33
15 12 8 9 10 10 9 8 7 5 5 5 5 5 2 4 4 6 6 8 10 10 10 10 9 13 14 21 25 26 25 25 24 25 26 26 27 28 30 30 32 33 34
17 15 12 11 10 11 10 8 8 7 6 4 4 2 6 4 3 5 6 7 9 10 10 10 9 8 12 18 21 23 23 23 23 24 25 26 28 29 30 32 33 34 35
20 18 19 17 16 12 12 12 11 8 6 5 2 1 2 5 6 5 6 6 8 7 9 10 11 12 14 16 16 21 22 23 24 25 26 27 28 30 31 33 35 36 37
23 22 22 23 22 20 19 18 16 14 10 6 5 3 2 1 5 6 5 5 6 7 7 6 9 11 14 13 17 22 22 23 24 25 26 27 29 30 31 33 36 38 38
26 26 26 26 25 23 23 19 17 16 13 10 7 6 6 2 2 3 5 3 5 6 6 5 7 10 14 14 15 19 20 22 23 24 25 26 28 29 30 32 33 33 34
30 27 27 26 26 24 22 18 17 16 14 13 9 7 6 4 6 3 3 6 5 4 4 5 6 9 13 12 14 18 18 21 22 23 24 26 26 27 28 28 29 31 32
31 31 27 27 25 25 24 21 18 16 16 15 12 11 10 5 7 4 2 3 2 3 3 3 3 7 11 11 12 16 18 20 20 21 22 23 23 24 24 25 27 29 30
30 36 33 32 31 29 26 22 19 18 18 17 16 14 13 11 10 8 5 2 1 2 3 1 1 7 10 11 12 15 16 19 18 19 19 19 20 20 22 23 26 27 30
32 39 38 35 32 28 25 22 21 20 19 18 17 15 15 13 11 11 7 7 2 5 5 2 4 6 9 9 10 12 11 14 13 16 17 17 19 18 19 22 25 27 29
25 34 39 36 33 29 28 25 24 23 20 18 18 17 15 14 12 12 13 13 6 4 5 5 4 6 7 6 9 10 9 11 12 14 15 15 16 17 18 21 23 26 27
27 33 36 36 33 30 29 29 26 23 21 20 19 18 16 15 14 13 12 10 8 3 2 4 5 5 5 5 8 9 7 10 11 12 14 13 14 16 18 20 22 24 27
32 31 34 37 35 35 32 30 27 24 24 22 21 19 17 16 15 14 12 10 7 7 4 4 5 3 3 5 6 8 7 8 10 9 13 13 14 14 16 18 19 23 27
33 31 35 37 37 34 34 31 29 27 27 26 24 21 19 17 15 13 13 10 8 7 6 7 5 3 4 5 7 8 8 7 10 8 13 14 14 14 14 16 19 21 24
34 32 35 39 39 37 34 31 29 30 29 26 24 23 21 20 18 16 13 12 10 6 6 6 5 4 4 5 6 6 9 10 9 8 12 14 13 15 14 14 16 19 23
33 34 37 40 39 38 34 32 32 31 28 26 25 23 22 21 19 17 15 14 12 10 9 6 6 6 5 5 4 8 10 10 13 8 11 16 14 14 13 13 13 17 22
33 33 37 38 39 36 35 36 34 33 32 28 25 23 22 21 19 17 16 15 12 11 10 9 8 7 5 4 4 6 8 13 12 8 13 19 15 13 14 19 13 15 20
30 33 37 39 39 36 38 39 37 35 31 29 27 25 23 22 20 18 16 14 12 12 12 11 9 9 7 5 6 7 6 6 5 4 15 21 9 13 13 20 13 14 18
31 34 37 41 41 38 38 39 36 34 32 29 28 27 24 22 19 17 16 14 11 12 11 9 11 10 8 8 9 7 5 6 8 13 16 12 7 12 11 17 12 11 17
32 35 38 40 38 38 38 37 33 31 29 27 27 27 25 24 21 18 16 13 12 10 11 13 13 12 11 9 10 9 9 10 12 10 9 5 7 13 17 14 9 10 14
29 33 36 36 36 36 36 36 33 28 28 27 26 26 24 23 22 19 18 16 13 14 13 12 11 12 11 11 12 11 10 8 7 4 6 7 6 16 16 10 10 13 15
28 29 30 31 33 33 33 34 33 32 29 28 25 24 24 22 20 20 19 17 18 17 14 14 15 15 14 14 13 14 14 12 8 8 7 3 7 10 8 5 11 14 18
Wind_Direction
164 157 160 157 150 145 149 130 112 91 70 54 39 28 20 17 19 27 357 23 43 50 44 36 37 35 34 30 29 32 27 23 22 17 13 8 7 2 359 356 351 348 345
168 167 168 167 170 170 167 162 157 84 55 51 38 24 19 17 24 33 58 16 37 38 39 43 43 43 44 44 40 35 29 23 18 16 13 10 6 3 360 357 354 350 346
182 179 184 185 186 186 187 182 226 40 347 355 356 1 15 25 49 64 71 68 26 20 27 40 49 50 52 47 41 34 26 21 17 15 12 8 6 2 357 354 351 349 345
190 191 193 193 193 193 195 189 216 281 293 312 331 341 353 30 88 80 79 76 74 53 15 33 57 63 56 48 37 30 25 20 15 13 11 7 3 2 358 354 351 348 345
192 194 203 207 204 200 204 211 221 265 279 294 338 342 349 96 106 96 79 78 50 52 53 29 37 49 53 40 30 26 25 23 19 13 10 8 6 3 360 356 352 349 346
203 199 203 213 208 212 218 226 229 251 258 288 313 318 44 129 101 107 94 83 56 59 61 70 53 34 34 33 29 26 23 20 18 14 11 9 7 3 360 356 353 349 346
206 205 213 206 211 231 228 224 238 240 264 270 292 292 143 149 108 106 105 86 63 61 68 69 71 66 34 24 26 25 22 20 18 15 13 9 8 5 2 358 355 351 347
212 214 219 221 211 218 222 223 234 235 226 238 250 227 210 159 156 121 110 80 69 74 68 64 60 46 38 14 25 23 22 20 19 16 13 12 9 7 3 0 357 354 351
220 226 227 230 230 225 231 237 235 231 208 219 203 246 238 231 144 149 128 78 79 91 90 78 65 49 33 20 17 15 19 20 19 17 14 12 10 7 5 3 2 0 357
223 228 229 233 235 239 242 238 243 234 217 202 188 198 221 196 236 162 170 117 94 92 87 84 65 39 27 27 10 18 17 19 19 18 15 13 10 8 7 7 6 4 4
223 226 224 231 235 240 242 236 234 226 226 217 202 180 197 206 201 232 164 154 134 100 95 92 58 31 22 21 6 17 19 17 18 17 14 12 10 7 8 6 5 360 359
222 223 222 228 232 233 236 240 229 224 222 213 199 207 200 174 184 168 180 161 166 127 110 98 56 19 12 18 6 14 18 13 16 15 13 10 6 6 6 2 0 3 1
218 221 220 224 223 227 228 225 219 218 212 213 208 201 196 188 171 167 164 122 255 190 178 122 28 353 5 6 2 13 10 9 12 11 9 6 4 5 4 2 0 360 1
222 222 221 222 221 223 218 216 210 207 203 205 204 199 189 182 179 176 165 164 173 241 225 185 299 324 352 356 351 14 4 354 10 8 7 6 3 3 2 360 0 359 1
219 220 219 218 217 214 212 205 204 203 202 201 196 187 182 177 178 180 182 182 212 173 198 186 199 299 335 351 336 9 354 356 357 6 4 6 4 4 2 359 0 0 -0
212 221 218 215 210 208 203 198 197 198 200 196 190 184 180 178 176 178 176 180 178 197 154 172 195 265 329 348 331 348 341 358 341 356 0 3 7 5 3 359 359 359 358
217 226 221 209 206 200 200 199 195 196 194 190 186 185 184 181 178 175 173 173 171 163 187 168 209 245 319 319 326 336 343 343 340 338 356 360 5 2 359 358 357 356 356
232 229 220 210 200 200 198 199 195 197 194 188 188 186 186 181 179 180 172 172 180 174 180 197 210 226 267 297 319 332 336 337 348 334 357 2 0 353 350 351 353 353 353
227 224 220 209 204 200 199 198 202 195 193 193 192 190 188 185 183 179 176 176 185 181 188 196 202 231 264 277 328 326 328 343 343 340 2 3 354 350 346 344 346 350 350
230 225 218 212 204 199 200 200 198 193 191 193 193 193 193 191 190 181 181 186 188 188 200 202 217 230 247 265 315 310 332 330 338 340 355 358 346 340 338 338 338 348 350
226 223 218 208 200 199 201 202 196 192 193 189 191 193 193 192 191 187 188 193 191 189 195 207 221 224 237 277 293 305 310 320 342 340 339 349 337 325 323 326 338 343 344
220 220 214 205 198 201 205 205 198 193 192 191 189 191 193 194 191 192 192 198 197 199 199 207 217 221 236 249 257 286 304 318 327 332 324 323 319 313 320 310 326 337 342
217 215 212 204 203 203 206 203 199 197 194 194 193 191 191 192 194 193 200 200 202 209 215 227 235 233 240 246 273 279 282 282 279 293 311 308 310 301 318 310 310 332 341
215 213 209 208 206 206 203 200 196 197 196 197 199 198 196 190 192 197 203 204 210 221 226 238 243 247 262 268 283 273 280 285 301 321 292 271 286 308 318 320 298 320 338
215 211 208 205 204 204 200 197 195 194 196 198 200 200 200 199 200 203 204 212 223 232 236 245 254 256 258 266 282 277 274 281 299 292 283 292 314 319 322 313 303 330 337
218 212 210 210 208 204 199 200 196 198 196 197 197 199 202 205 207 211 208 220 228 239 241 244 250 252 254 267 275 268 266 247 259 291 222 291 315 341 324 286 333 317 326